MOLNIYA 3-51

Last updated on Jan. 5, 2017, 12:17 a.m. UTC

1 26867U 01030A   16354.23731075  .99999999  85310-5  12273-2 0  9991
2 26867  62.3878  71.4818 0412890 275.7728 183.9149 15.70963793119732

Satellite is not in orbit.